Time,TemperatureF,DewpointF,PressureIn,WindDirection,WindDirectionDegrees,WindSpeedMPH,WindSpeedGustMPH,Humidity,HourlyPrecipIn,Conditions,Clouds,dailyrainin,SoftwareType,DateUTC
2013-11-27 00:00:00,44.3,41.6,29.61,SSE,158,0.4,0.4,90,0.00,,,0.00,WUHU216HW,2013-11-27 05:00:00,
2013-11-27 00:01:00,44.3,41.6,29.61,SSE,158,0.4,0.4,90,0.00,,,0.00,WUHU216HW,2013-11-27 05:01:00,
2013-11-27 00:06:00,44.3,41.6,29.61,SSE,158,0.4,0.4,90,0.00,,,0.00,WUHU216HW,2013-11-27 05:06:00,
2013-11-27 00:30:00,44.3,41.6,29.58,North,0,1.8,1.8,90,0.00,,,0.00,WUHU216HW,2013-11-27 05:30:00,
2013-11-27 00:35:00,44.3,41.6,29.58,North,0,1.8,1.8,90,0.00,,,0.00,WUHU216HW,2013-11-27 05:35:00,
2013-11-27 01:00:00,44.5,41.8,29.58,North,0,0.0,0.0,90,0.00,,,0.00,WUHU216HW,2013-11-27 06:00:00,
2013-11-27 01:05:00,44.5,41.8,29.58,North,0,0.0,0.0,90,0.00,,,0.00,WUHU216HW,2013-11-27 06:05:00,
2013-11-27 01:30:00,44.8,42.4,29.57,NNE,23,0.7,0.7,91,0.00,,,0.00,WUHU216HW,2013-11-27 06:30:00,
2013-11-27 01:35:00,44.8,42.4,29.57,NNE,23,0.7,0.7,91,0.00,,,0.00,WUHU216HW,2013-11-27 06:35:00,
2013-11-27 02:00:00,45.0,42.6,29.57,East,90,0.0,0.0,91,0.00,,,0.00,WUHU216HW,2013-11-27 07:00:00,
2013-11-27 02:05:00,45.0,42.6,29.57,East,90,0.0,0.0,91,0.00,,,0.00,WUHU216HW,2013-11-27 07:05:00,
2013-11-27 02:30:00,45.0,42.6,29.56,NNW,338,1.3,1.3,91,0.00,,,0.00,WUHU216HW,2013-11-27 07:30:00,
2013-11-27 02:35:00,45.0,42.6,29.56,NNW,338,1.3,1.3,91,0.00,,,0.00,WUHU216HW,2013-11-27 07:35:00,
2013-11-27 03:00:00,45.0,42.6,29.57,SW,225,1.6,1.6,91,0.00,,,0.00,WUHU216HW,2013-11-27 08:00:00,
2013-11-27 03:05:00,45.0,42.6,29.57,SW,225,1.6,1.6,91,0.00,,,0.00,WUHU216HW,2013-11-27 08:05:00,
2013-11-27 03:30:00,44.8,42.4,29.54,North,0,0.0,0.0,91,0.00,,,0.00,WUHU216HW,2013-11-27 08:30:00,
2013-11-27 03:35:00,44.8,42.4,29.54,North,0,0.0,0.0,91,0.00,,,0.00,WUHU216HW,2013-11-27 08:35:00,
2013-11-27 04:00:00,45.0,42.8,29.55,SW,225,2.0,2.0,92,0.00,,,0.00,WUHU216HW,2013-11-27 09:00:00,
2013-11-27 04:05:00,45.0,42.8,29.55,SW,225,2.0,2.0,92,0.00,,,0.00,WUHU216HW,2013-11-27 09:05:00,
2013-11-27 04:30:00,45.4,42.9,29.53,North,0,0.7,0.7,91,0.00,,,0.00,WUHU216HW,2013-11-27 09:30:00,
2013-11-27 04:35:00,45.4,42.9,29.53,North,0,0.7,0.7,91,0.00,,,0.00,WUHU216HW,2013-11-27 09:35:00,
2013-11-27 05:00:00,45.5,43.1,29.53,North,0,0.9,0.9,91,0.00,,,0.00,WUHU216HW,2013-11-27 10:00:00,
2013-11-27 05:05:00,45.5,43.1,29.53,North,0,0.9,0.9,91,0.00,,,0.00,WUHU216HW,2013-11-27 10:05:00,
2013-11-27 05:30:00,45.7,43.6,29.52,North,0,1.8,1.8,92,0.00,,,0.00,WUHU216HW,2013-11-27 10:30:00,
2013-11-27 05:35:00,45.7,43.6,29.52,North,0,1.8,1.8,92,0.00,,,0.00,WUHU216HW,2013-11-27 10:35:00,
2013-11-27 06:00:00,45.9,43.7,29.54,North,0,0.9,0.9,92,0.00,,,0.00,WUHU216HW,2013-11-27 11:00:00,
2013-11-27 06:05:00,45.9,43.7,29.54,North,0,0.9,0.9,92,0.00,,,0.00,WUHU216HW,2013-11-27 11:05:00,
2013-11-27 06:30:00,46.1,43.9,29.54,North,0,2.5,2.5,92,0.00,,,0.00,WUHU216HW,2013-11-27 11:30:00,
2013-11-27 06:35:00,46.1,43.9,29.54,North,0,2.5,2.5,92,0.00,,,0.00,WUHU216HW,2013-11-27 11:35:00,
2013-11-27 07:00:00,45.7,43.3,29.54,NNW,338,1.1,1.1,91,0.00,,,0.00,WUHU216HW,2013-11-27 12:00:00,
2013-11-27 07:05:00,45.7,43.3,29.54,NNW,338,1.1,1.1,91,0.00,,,0.00,WUHU216HW,2013-11-27 12:05:00,
2013-11-27 07:30:00,45.0,42.6,29.56,NNW,338,1.3,1.3,91,0.00,,,0.00,WUHU216HW,2013-11-27 12:30:00,
2013-11-27 07:35:00,45.0,42.6,29.56,NNW,338,1.3,1.3,91,0.00,,,0.00,WUHU216HW,2013-11-27 12:35:00,
2013-11-27 08:00:00,44.1,41.1,29.55,NNW,338,2.2,2.2,89,0.00,,,0.00,WUHU216HW,2013-11-27 13:00:00,
2013-11-27 08:05:00,44.1,41.1,29.55,NNW,338,2.2,2.2,89,0.00,,,0.00,WUHU216HW,2013-11-27 13:05:00,
2013-11-27 08:30:00,43.7,40.4,29.56,NNW,338,4.3,4.3,88,0.00,,,0.00,WUHU216HW,2013-11-27 13:30:00,
2013-11-27 08:35:00,43.7,40.4,29.56,NNW,338,4.3,4.3,88,0.00,,,0.00,WUHU216HW,2013-11-27 13:35:00,
2013-11-27 09:00:00,42.7,39.1,29.57,North,0,1.1,1.1,87,0.00,,,0.00,WUHU216HW,2013-11-27 14:00:00,
2013-11-27 09:05:00,42.7,39.1,29.57,North,0,1.1,1.1,87,0.00,,,0.00,WUHU216HW,2013-11-27 14:05:00,
2013-11-27 09:30:00,41.4,38.1,29.58,SW,225,2.0,2.0,88,0.00,,,0.00,WUHU216HW,2013-11-27 14:30:00,
2013-11-27 09:35:00,41.4,38.1,29.58,SW,225,2.0,2.0,88,0.00,,,0.00,WUHU216HW,2013-11-27 14:35:00,
2013-11-27 10:00:00,41.0,37.7,29.59,North,0,1.8,1.8,88,0.00,,,0.00,WUHU216HW,2013-11-27 15:00:00,
2013-11-27 10:05:00,41.0,37.7,29.59,North,0,1.8,1.8,88,0.00,,,0.00,WUHU216HW,2013-11-27 15:05:00,
2013-11-27 10:30:00,40.1,36.8,29.59,NNW,338,3.4,3.4,88,0.00,,,0.00,WUHU216HW,2013-11-27 15:30:00,
2013-11-27 10:35:00,40.1,36.8,29.59,NNW,338,3.4,3.4,88,0.00,,,0.00,WUHU216HW,2013-11-27 15:35:00,
2013-11-27 11:00:00,39.8,36.8,29.60,North,0,2.5,2.5,89,0.00,,,0.00,WUHU216HW,2013-11-27 16:00:00,
2013-11-27 11:05:00,39.8,36.8,29.60,North,0,2.5,2.5,89,0.00,,,0.00,WUHU216HW,2013-11-27 16:05:00,
2013-11-27 11:30:00,39.2,36.0,29.59,North,0,2.5,2.5,88,0.00,,,0.00,WUHU216HW,2013-11-27 16:30:00,
2013-11-27 11:35:00,39.2,36.0,29.59,North,0,2.5,2.5,88,0.00,,,0.00,WUHU216HW,2013-11-27 16:35:00,
2013-11-27 12:00:00,39.1,35.8,29.63,NW,315,2.2,2.2,88,0.00,,,0.00,WUHU216HW,2013-11-27 17:00:00,
2013-11-27 12:05:00,39.1,35.8,29.63,NW,315,2.2,2.2,88,0.00,,,0.00,WUHU216HW,2013-11-27 17:05:00,
2013-11-27 12:30:00,38.5,35.6,29.64,NNW,338,0.7,0.7,89,0.00,,,0.00,WUHU216HW,2013-11-27 17:30:00,
2013-11-27 12:35:00,38.5,35.6,29.64,NNW,338,0.7,0.7,89,0.00,,,0.00,WUHU216HW,2013-11-27 17:35:00,
2013-11-27 13:00:00,38.2,35.5,29.67,SSW,203,2.5,2.5,90,0.00,,,0.00,WUHU216HW,2013-11-27 18:00:00,
2013-11-27 13:05:00,38.2,35.5,29.67,SSW,203,2.5,2.5,90,0.00,,,0.00,WUHU216HW,2013-11-27 18:05:00,
2013-11-27 13:30:00,38.0,35.3,29.68,NW,315,1.3,1.3,90,0.00,,,0.00,WUHU216HW,2013-11-27 18:30:00,
2013-11-27 13:35:00,38.0,35.3,29.68,NW,315,1.3,1.3,90,0.00,,,0.00,WUHU216HW,2013-11-27 18:35:00,
2013-11-27 14:00:00,37.6,34.7,29.69,NNW,338,4.0,4.0,89,0.00,,,0.00,WUHU216HW,2013-11-27 19:00:00,
2013-11-27 14:05:00,37.6,34.7,29.69,NNW,338,4.0,4.0,89,0.00,,,0.00,WUHU216HW,2013-11-27 19:05:00,
2013-11-27 14:30:00,37.3,33.7,29.73,West,270,1.1,1.1,87,0.00,,,0.00,WUHU216HW,2013-11-27 19:30:00,
2013-11-27 14:35:00,37.3,33.7,29.73,West,270,1.1,1.1,87,0.00,,,0.00,WUHU216HW,2013-11-27 19:35:00,
2013-11-27 15:00:00,36.7,33.1,29.75,North,0,1.1,1.1,87,0.00,,,0.00,WUHU216HW,2013-11-27 20:00:00,
2013-11-27 15:05:00,36.7,33.1,29.75,North,0,1.1,1.1,87,0.00,,,0.00,WUHU216HW,2013-11-27 20:05:00,
2013-11-27 15:30:00,36.7,33.1,29.77,West,270,2.2,2.2,87,0.00,,,0.00,WUHU216HW,2013-11-27 20:30:00,
2013-11-27 15:35:00,36.7,33.1,29.77,West,270,2.2,2.2,87,0.00,,,0.00,WUHU216HW,2013-11-27 20:35:00,
2013-11-27 16:00:00,36.7,33.1,29.80,West,270,2.2,2.2,87,0.00,,,0.00,WUHU216HW,2013-11-27 21:00:00,
2013-11-27 16:05:00,36.7,33.1,29.80,West,270,2.2,2.2,87,0.00,,,0.00,WUHU216HW,2013-11-27 21:05:00,
2013-11-27 16:30:00,36.7,33.1,29.83,North,0,0.9,0.9,87,0.00,,,0.00,WUHU216HW,2013-11-27 21:30:00,
2013-11-27 16:35:00,36.7,33.1,29.83,North,0,0.9,0.9,87,0.00,,,0.00,WUHU216HW,2013-11-27 21:35:00,
2013-11-27 17:00:00,36.9,33.0,29.86,West,270,1.1,1.1,86,0.00,,,0.00,WUHU216HW,2013-11-27 22:00:00,
2013-11-27 17:05:00,36.9,33.0,29.86,West,270,1.1,1.1,86,0.00,,,0.00,WUHU216HW,2013-11-27 22:05:00,
2013-11-27 17:30:00,36.7,32.1,29.88,North,0,1.8,1.8,83,0.00,,,0.00,WUHU216HW,2013-11-27 22:30:00,
2013-11-27 17:35:00,36.7,32.1,29.88,North,0,1.8,1.8,83,0.00,,,0.00,WUHU216HW,2013-11-27 22:35:00,
2013-11-27 18:00:00,35.3,29.1,29.91,West,270,0.7,0.7,78,0.00,,,0.00,WUHU216HW,2013-11-27 23:00:00,
2013-11-27 18:05:00,35.3,29.1,29.91,West,270,0.7,0.7,78,0.00,,,0.00,WUHU216HW,2013-11-27 23:05:00,
2013-11-27 18:30:00,34.2,27.6,29.94,NNW,338,1.6,1.6,77,0.00,,,0.00,WUHU216HW,2013-11-27 23:30:00,
2013-11-27 18:35:00,34.2,27.6,29.94,NNW,338,1.6,1.6,77,0.00,,,0.00,WUHU216HW,2013-11-27 23:35:00,
2013-11-27 19:00:00,33.5,26.3,29.97,West,270,0.7,0.7,75,0.00,,,0.00,WUHU216HW,2013-11-28 00:00:00,
2013-11-27 19:05:00,33.5,26.3,29.97,West,270,0.7,0.7,75,0.00,,,0.00,WUHU216HW,2013-11-28 00:05:00,
2013-11-27 19:30:00,32.9,25.8,30.00,SW,225,4.5,4.5,75,0.00,,,0.00,WUHU216HW,2013-11-28 00:30:00,
2013-11-27 19:35:00,32.9,25.8,30.00,SW,225,4.5,4.5,75,0.00,,,0.00,WUHU216HW,2013-11-28 00:35:00,
2013-11-27 20:00:00,32.2,24.2,30.00,NNW,338,1.3,1.3,72,0.00,,,0.00,WUHU216HW,2013-11-28 01:00:00,
2013-11-27 20:05:00,32.2,24.2,30.00,NNW,338,1.3,1.3,72,0.00,,,0.00,WUHU216HW,2013-11-28 01:05:00,
2013-11-27 20:30:00,31.7,23.4,30.02,West,270,0.2,0.2,71,0.00,,,0.00,WUHU216HW,2013-11-28 01:30:00,
2013-11-27 20:35:00,31.7,23.4,30.02,West,270,0.2,0.2,71,0.00,,,0.00,WUHU216HW,2013-11-28 01:35:00,
2013-11-27 21:00:00,31.3,22.7,30.04,West,270,1.1,1.1,70,0.00,,,0.00,WUHU216HW,2013-11-28 02:00:00,
2013-11-27 21:05:00,31.3,22.7,30.04,West,270,1.1,1.1,70,0.00,,,0.00,WUHU216HW,2013-11-28 02:05:00,
2013-11-27 21:30:00,31.0,22.0,30.06,WNW,293,1.8,1.8,69,0.00,,,0.00,WUHU216HW,2013-11-28 02:30:00,
2013-11-27 21:35:00,31.0,22.0,30.06,WNW,293,1.8,1.8,69,0.00,,,0.00,WUHU216HW,2013-11-28 02:35:00,
2013-11-27 22:00:00,30.6,21.6,30.08,NNW,338,2.0,2.0,69,0.00,,,0.00,WUHU216HW,2013-11-28 03:00:00,
2013-11-27 22:05:00,30.6,21.6,30.08,NNW,338,2.0,2.0,69,0.00,,,0.00,WUHU216HW,2013-11-28 03:05:00,
2013-11-27 22:30:00,30.4,21.4,30.10,NW,315,0.7,0.7,69,0.00,,,0.00,WUHU216HW,2013-11-28 03:30:00,
2013-11-27 22:35:00,30.4,21.4,30.10,NW,315,0.7,0.7,69,0.00,,,0.00,WUHU216HW,2013-11-28 03:35:00,
2013-11-27 23:00:00,30.1,21.1,30.13,NNW,338,0.4,0.4,69,0.00,,,0.00,WUHU216HW,2013-11-28 04:00:00,
2013-11-27 23:05:00,30.1,21.1,30.13,NNW,338,0.4,0.4,69,0.00,,,0.00,WUHU216HW,2013-11-28 04:05:00,
2013-11-27 23:30:00,29.7,21.2,30.14,West,270,0.4,0.4,70,0.00,,,0.00,WUHU216HW,2013-11-28 04:30:00,
2013-11-27 23:35:00,29.7,21.2,30.14,West,270,0.4,0.4,70,0.00,,,0.00,WUHU216HW,2013-11-28 04:35:00,